Preview of NWS' New Version of Forecast
This preview is not operational and should not be used for support decisions.

Regional Weather Roundup (RWR)

Issued by National Weather Service (NWS)

                            
000
ASUS43 KLSX 231057
RWRMO 

WEATHER SUMMARY FOR MISSOURI
NATIONAL WEATHER SERVICE SPRINGFIELD MO
600 AM CDT THU MAY 23 2019

NOTE: "FAIR" INDICATES FEW OR NO CLOUDS BELOW 12,000 FEET WITH NO
       SIGNIFICANT WEATHER AND/OR OBSTRUCTIONS TO VISIBILITY.
       CURRENT SKY AND/OR WEATHER CONDITIONS ARE NOT AVAILABLE FOR
       CHILLICOTHE AND FARMINGTON.

MOZ001>031-035>038-043-044-053-054-231200-
...NORTHERN AND WESTERN MISSOURI...
  
CITY           SKY/WX    TMP DP  RH WIND       PRES   REMARKS
KANSAS CTY INT PTCLDY    52  49  89 CALM      30.03R                  
LEE'S SUMMIT   CLOUDY    57  54  89 NE5       30.02R                  
ST JOSEPH      CLEAR     49  49 100 CALM      30.05R                  
CHILLICOTHE      N/A     52  50  93 CALM      30.05R                  
KIRKSVILLE     CLEAR     50  48  93 CALM      30.03R FOG              
     
$$
MOZ066>068-077>081-088>096-101>105-231200-
...SOUTHWEST MISSOURI...
  
CITY           SKY/WX    TMP DP  RH WIND       PRES   REMARKS
SPRINGFIELD    TSTM      66  63  90 E13G20    30.02S FOG              
               
$$
MOZ032>034-039>042-045>050-055>058-069>072-231200-
...CENTRAL MISSOURI...  
  
CITY           SKY/WX    TMP DP  RH WIND       PRES   REMARKS
COLUMBIA       NOT AVBL                                               
ROLLA          CLOUDY    68  66  93 CALM      30.04R                  
SEDALIA        CLOUDY    58  32  37 N6        30.02S                  
WARRENSBURG    FOG       59  59 100 N3        30.01R VSB 1/2          
               
$$
MOZ051-052-059>065-231200-
...EAST CENTRAL MISSOURI...
  
CITY           SKY/WX    TMP DP  RH WIND       PRES   REMARKS
ST LOUIS INTL  CLOUDY    70  67  90 CALM      30.01F                  
                   
$$
MOZ072>076-082>087-097>100-106>115-231200-
...SOUTH CENTRAL AND SOUTHEAST MISSOURI...
  
CITY           SKY/WX    TMP DP  RH WIND       PRES   REMARKS
CAPE GIRARDEAU FAIR      76  70  82 S12G21    30.07R                  
POPLAR BLUFF   FAIR      75  72  90 S10       30.06R                  
WEST PLAINS    MOCLDY    74  69  85 S5        30.08R                  
                                       
$$